Location: Ferrara
(44.8330°N, 11.5830°E)
Time: 11:39:05
(UTC+02:00)

ISS - Visible Passes

Search period start: 11 May 2021 00:00
Search period end: 21 May 2021 00:00
Orbit: 418 x 421 km, 51.6° (Epoch: 11 May)

Date Brightness Start Highest point End Pass type
(mag) Time Alt. Az. Time Alt. Az. Time Alt. Az.
11 May -1.7 02:04:20 28° N 02:04:20 28° N 02:06:49 10° NE visible
11 May -1.6 03:38:20 10° NW 03:41:16 26° N 03:44:12 10° ENE visible
11 May -3.3 05:15:07 10° WNW 05:18:30 69° NNE 05:21:52 10° ESE visible
12 May -1.1 01:18:16 18° NE 01:18:16 18° NE 01:19:23 10° NE visible
12 May -1.5 02:51:12 12° NW 02:53:40 25° N 02:56:32 10° ENE visible
12 May -2.7 04:27:43 10° NW 04:31:00 48° NNE 04:34:18 10° E visible
13 May -1.4 02:05:02 21° NNW 02:06:03 25° N 02:08:55 10° NE visible
13 May -2.2 03:40:18 10° NW 03:43:29 36° NNE 03:46:39 10° E visible
14 May -1.5 01:18:38 26° N 01:18:38 26° N 01:21:21 10° NE visible
14 May -1.8 02:52:52 10° NW 02:55:55 30° NNE 02:58:57 10° ENE visible
14 May -3.9 04:29:37 10° WNW 04:32:59 78° SSW 04:36:21 10° SE visible
14 May -1.9 21:15:54 10° SSE 21:17:25 13° SE 21:18:58 10° ESE visible
14 May -3.9 22:50:23 10° SW 22:53:45 84° SSE 22:55:37 24° ENE visible
15 May -1.8 00:27:50 10° WNW 00:30:51 29° NNW 00:33:52 10° NE visible
15 May -1.5 02:05:24 10° NW 02:08:20 26° N 02:11:16 10° ENE visible
15 May -3.5 03:42:10 10° WNW 03:45:32 69° NNE 03:48:54 10° ESE visible
15 May -3.7 22:03:04 10° SW 22:06:21 52° SE 22:09:39 10° ENE visible
15 May -2.1 23:40:09 10° W 23:43:17 35° NNW 23:46:26 10° NE visible
16 May -1.4 01:17:51 10° NW 01:20:43 25° N 01:23:35 10° ENE visible
16 May -2.8 02:54:45 10° NW 02:58:03 48° NNE 03:01:21 10° E visible
16 May -3.0 04:31:45 10° WNW 04:34:46 30° SW 04:37:45 10° SSE visible
16 May -3.0 21:15:58 10° SSW 21:19:00 32° SE 21:22:04 10° ENE visible
16 May -2.6 22:52:29 10° W 22:55:44 46° NNW 22:59:01 10° NE visible
17 May -1.4 00:30:15 10° WNW 00:33:06 25° N 00:35:58 10° NE visible
17 May -2.2 02:07:20 10° NW 02:10:31 37° NNE 02:13:41 10° E visible
17 May -3.6 03:44:09 10° WNW 03:47:25 48° SW 03:50:41 10° SE visible
17 May -3.3 22:04:54 10° WSW 22:08:15 65° NNW 22:11:36 10° ENE visible
17 May -1.5 23:42:35 10° WNW 23:45:29 26° N 23:48:24 10° NE visible
18 May -1.8 01:19:55 10° NW 01:22:56 30° NNE 01:22:56 30° NNE visible
18 May -3.8 21:17:26 10° WSW 21:20:47 84° SSE 21:24:10 10° ENE visible
18 May -1.7 22:54:53 10° WNW 22:57:53 29° NNW 23:00:54 10° NE visible
19 May -1.6 00:32:26 10° NW 00:35:21 26° N 00:36:31 22° NE visible
19 May -0.9 02:09:12 10° WNW 02:09:27 12° WNW 02:09:27 12° WNW visible
19 May -2.0 22:07:11 10° W 22:10:18 35° NNW 22:13:27 10° NE visible
19 May -1.5 23:44:53 10° NW 23:47:45 25° N 23:50:21 11° ENE visible
20 May -1.6 01:21:47 10° NW 01:23:16 23° NW 01:23:16 23° NW visible
20 May -2.5 21:19:31 10° W 21:22:46 45° NNW 21:26:02 10° NE visible
20 May -1.4 22:57:16 10° WNW 23:00:07 25° N 23:02:58 10° NE visible
